�������l�o���
Date,Time,MP-1(��Sv/h),MP-2(��Sv/h),MP-3(��Sv/h),MP-4(��Sv/h),MP-5(��Sv/h),MP-6(��Sv/h),MP-7(��Sv/h),MP-8(��Sv/h),����,����(m/s),���J
2019/10/02,00:00,0.748,1.062,0.734,1.303,0.958,0.422,0.738,0.695,�쐼,2.0,��
2019/10/02,00:10,0.746,1.064,0.734,1.305,0.960,0.422,0.737,0.696,���쐼,2.0,��
2019/10/02,00:20,0.747,1.065,0.733,1.306,0.959,0.422,0.738,0.696,�쐼,1.7,��
2019/10/02,00:30,0.745,1.064,0.734,1.303,0.960,0.422,0.737,0.697,���쐼,0.9,��
2019/10/02,00:40,0.747,1.065,0.734,1.304,0.960,0.423,0.738,0.696,�쐼,1.2,��
2019/10/02,00:50,0.745,1.064,0.734,1.303,0.959,0.422,0.738,0.697,���k��,1.2,��
2019/10/02,01:00,0.746,1.065,0.734,1.306,0.961,0.422,0.738,0.698,���k��,2.3,��
2019/10/02,01:10,0.746,1.063,0.733,1.303,0.961,0.422,0.737,0.696,���k��,2.0,��
2019/10/02,01:20,0.745,1.066,0.732,1.304,0.961,0.423,0.737,0.695,�k,1.1,��
2019/10/02,01:30,0.746,1.063,0.735,1.303,0.958,0.422,0.737,0.694,�k,0.9,��
2019/10/02,01:40,0.747,1.063,0.731,1.305,0.960,0.420,0.738,0.696,�k�k��,1.2,��
2019/10/02,01:50,0.744,1.065,0.734,1.306,0.960,0.421,0.737,0.697,�k�k��,1.2,��
2019/10/02,02:00,0.746,1.065,0.730,1.303,0.958,0.422,0.738,0.696,�k�k��,0.8,��
2019/10/02,02:10,0.745,1.063,0.733,1.304,0.961,0.421,0.738,0.697,�k��,0.6,��
2019/10/02,02:20,0.744,1.065,0.733,1.305,0.959,0.421,0.738,0.697,-,CALM,��
2019/10/02,02:30,0.747,1.064,0.733,1.305,0.958,0.420,0.738,0.696,��,0.9,��
2019/10/02,02:40,0.746,1.063,0.732,1.304,0.956,0.421,0.737,0.694,��쐼,0.9,��
2019/10/02,02:50,0.745,1.064,0.733,1.304,0.959,0.424,0.739,0.696,���쐼,1.9,��
2019/10/02,03:00,0.745,1.064,0.732,1.303,0.959,0.422,0.737,0.697,���쐼,2.9,��
2019/10/02,03:10,0.746,1.064,0.733,1.304,0.956,0.424,0.738,0.695,���쐼,2.8,��
2019/10/02,03:20,0.747,1.064,0.732,1.306,0.960,0.421,0.738,0.697,���쐼,1.7,��
2019/10/02,03:30,0.747,1.060,0.732,1.306,0.959,0.422,0.737,0.695,�쐼,1.2,��
2019/10/02,03:40,0.744,1.064,0.733,1.305,0.959,0.422,0.738,0.695,��,0.6,��
2019/10/02,03:50,0.746,1.063,0.733,1.306,0.958,0.421,0.738,0.695,�k�k��,0.6,��
2019/10/02,04:00,0.745,1.063,0.731,1.305,0.957,0.421,0.740,0.696,-,CALM,��
2019/10/02,04:10,0.744,1.064,0.732,1.305,0.958,0.423,0.738,0.696,���쐼,0.6,��
2019/10/02,04:20,0.745,1.063,0.732,1.305,0.959,0.423,0.736,0.696,-,CALM,��
2019/10/02,04:30,0.746,1.064,0.732,1.304,0.961,0.422,0.736,0.698,�k�k��,0.6,��
2019/10/02,04:40,0.745,1.063,0.733,1.306,0.956,0.422,0.738,0.695,�k�k��,1.2,��
2019/10/02,04:50,0.744,1.064,0.734,1.303,0.958,0.423,0.738,0.697,���k��,1.5,��
2019/10/02,05:00,0.744,1.061,0.732,1.305,0.958,0.423,0.738,0.696,��,1.5,��
2019/10/02,05:10,0.745,1.066,0.731,1.304,0.960,0.421,0.739,0.697,��,1.4,��
2019/10/02,05:20,0.745,1.064,0.732,1.306,0.959,0.422,0.737,0.696,�k��,1.5,��
2019/10/02,05:30,0.743,1.064,0.733,1.303,0.956,0.421,0.737,0.695,�k�k��,3.3,��
2019/10/02,05:40,0.744,1.062,0.732,1.306,0.960,0.422,0.738,0.695,�k�k��,4.0,��
2019/10/02,05:50,0.743,1.063,0.734,1.305,0.960,0.422,0.738,0.697,�k��,3.0,��
2019/10/02,06:00,0.745,1.063,0.733,1.306,0.959,0.422,0.737,0.697,�k��,3.1,��
2019/10/02,06:10,0.743,1.064,0.733,1.305,0.957,0.423,0.736,0.695,���k��,3.0,��
2019/10/02,06:20,0.744,1.065,0.732,1.303,0.958,0.422,0.739,0.696,���k��,2.6,��
2019/10/02,06:30,0.744,1.066,0.731,1.305,0.958,0.421,0.738,0.696,�k�k��,2.0,��
2019/10/02,06:40,0.747,1.062,0.732,1.306,0.957,0.422,0.738,0.695,�k,1.7,��
2019/10/02,06:50,0.746,1.062,0.734,1.306,0.957,0.423,0.740,0.695,�k�k��,1.9,��
2019/10/02,07:00,0.748,1.062,0.733,1.307,0.958,0.423,0.740,0.696,�k�k��,1.7,��
2019/10/02,07:10,0.746,1.064,0.733,1.305,0.958,0.423,0.740,0.698,�k�k��,2.0,��
2019/10/02,07:20,0.745,1.063,0.735,1.306,0.959,0.422,0.739,0.695,�k�k��,2.0,��
2019/10/02,07:30,0.747,1.061,0.735,1.306,0.958,0.423,0.740,0.696,�k�k��,2.5,��
2019/10/02,07:40,0.747,1.064,0.734,1.304,0.957,0.423,0.739,0.699,�k,2.3,��
2019/10/02,07:50,0.747,1.066,0.733,1.307,0.960,0.423,0.739,0.697,�k�k��,2.5,��
2019/10/02,08:00,0.746,1.063,0.733,1.306,0.960,0.424,0.740,0.698,�k�k��,2.2,��
2019/10/02,08:10,0.750,1.060,0.735,1.306,0.961,0.424,0.738,0.698,�k�k��,1.9,��
2019/10/02,08:20,0.749,1.062,0.732,1.306,0.961,0.424,0.737,0.697,�k�k��,1.7,��
2019/10/02,08:30,0.748,1.062,0.734,1.308,0.960,0.421,0.738,0.698,�k�k��,2.2,��
2019/10/02,08:40,0.747,1.056,0.733,1.307,0.960,0.422,0.737,0.697,�k�k��,1.7,��
2019/10/02,08:50,0.749,1.059,0.734,1.308,0.961,0.422,0.738,0.699,�k,2.2,��
2019/10/02,09:00,0.749,1.061,0.731,1.307,0.960,0.423,0.738,0.697,�k�k��,1.7,��
2019/10/02,09:10,0.745,1.058,0.732,1.309,0.961,0.422,0.737,0.696,�k��,1.2,��
2019/10/02,09:20,0.748,1.063,0.731,1.309,0.959,0.421,0.739,0.695,�k�k��,2.6,��
2019/10/02,09:30,0.749,1.057,0.731,1.310,0.959,0.422,0.738,0.695,�k��,2.0,��
2019/10/02,09:40,0.747,1.060,0.733,1.309,0.957,0.420,0.740,0.695,�k��,2.0,��
2019/10/02,09:50,0.749,1.060,0.730,1.310,0.957,0.420,0.739,0.696,�k��,2.3,��
2019/10/02,10:00,0.747,1.058,0.729,1.308,0.960,0.421,0.739,0.694,���k��,1.7,��
2019/10/02,10:10,0.750,1.058,0.731,1.309,0.961,0.423,0.739,0.695,���k��,2.0,��
2019/10/02,10:20,0.748,1.063,0.733,1.306,0.962,0.423,0.741,0.696,���k��,1.4,��
2019/10/02,10:30,0.749,1.056,0.731,1.308,0.962,0.421,0.740,0.696,���쓌,1.5,��
2019/10/02,10:40,0.749,1.062,0.733,1.307,0.962,0.421,0.740,0.696,���쓌,1.7,��
2019/10/02,10:50,0.749,1.061,0.732,1.311,0.963,0.421,0.740,0.695,���쓌,1.7,��
2019/10/02,11:00,0.753,1.062,0.733,1.307,0.964,0.422,0.739,0.696,�쓌,1.7,��
2019/10/02,11:10,0.753,1.061,0.732,1.306,0.961,0.422,0.740,0.695,���쓌,2.6,��
2019/10/02,11:20,0.750,1.064,0.733,1.309,0.962,0.420,0.739,0.695,��,2.5,��
2019/10/02,11:30,0.749,1.064,0.735,1.309,0.963,0.421,0.736,0.697,���쓌,2.3,��
2019/10/02,11:40,0.750,1.065,0.735,1.311,0.963,0.423,0.741,0.697,�쓌,2.5,��
2019/10/02,11:50,0.752,1.068,0.733,1.312,0.962,0.422,0.739,0.694,�쓌,3.5,��
2019/10/02,12:00,0.752,1.067,0.737,1.310,0.963,0.423,0.739,0.695,���쓌,3.4,��
2019/10/02,12:10,0.749,1.070,0.734,1.310,0.965,0.421,0.739,0.696,���쓌,3.1,��
2019/10/02,12:20,0.749,1.072,0.734,1.308,0.964,0.422,0.739,0.696,���쓌,3.0,��
2019/10/02,12:30,0.751,1.072,0.735,1.310,0.964,0.422,0.740,0.696,�쓌,2.9,��
2019/10/02,12:40,0.751,1.070,0.733,1.309,0.966,0.421,0.740,0.696,�쓌,2.9,��
2019/10/02,12:50,0.750,1.070,0.733,1.310,0.964,0.421,0.740,0.695,�쓌,2.8,��
2019/10/02,13:00,0.751,1.069,0.737,1.311,0.967,0.422,0.740,0.696,�쓌,3.4,��
2019/10/02,13:10,0.751,1.067,0.735,1.310,0.966,0.423,0.739,0.696,�쓌,3.5,��
2019/10/02,13:20,0.751,1.066,0.735,1.310,0.966,0.422,0.741,0.696,�쓌,3.3,��
2019/10/02,13:30,0.750,1.064,0.735,1.309,0.966,0.421,0.742,0.696,��쓌,3.0,��
2019/10/02,13:40,0.751,1.065,0.735,1.311,0.966,0.422,0.740,0.698,�쓌,3.1,��
2019/10/02,13:50,0.750,1.067,0.735,1.310,0.965,0.422,0.740,0.698,���쓌,3.2,��
2019/10/02,14:00,0.750,1.065,0.734,1.312,0.967,0.422,0.741,0.695,��쓌,2.0,��
2019/10/02,14:10,0.748,1.069,0.734,1.310,0.967,0.422,0.740,0.696,��쓌,4.2,��
2019/10/02,14:20,0.753,1.066,0.735,1.310,0.967,0.422,0.739,0.698,��쓌,3.8,��
2019/10/02,14:30,0.753,1.068,0.736,1.312,0.965,0.422,0.739,0.695,��쓌,5.0,��
2019/10/02,14:40,0.750,1.064,0.735,1.311,0.967,0.422,0.742,0.698,��쓌,3.7,��
2019/10/02,14:50,0.751,1.069,0.735,1.311,0.967,0.423,0.741,0.697,��쓌,4.1,��
2019/10/02,15:00,0.751,1.067,0.736,1.309,0.965,0.423,0.740,0.698,��쓌,4.8,��
2019/10/02,15:10,0.750,1.066,0.735,1.311,0.967,0.424,0.740,0.696,��쓌,4.4,��
2019/10/02,15:20,0.751,1.072,0.734,1.309,0.967,0.423,0.739,0.698,��쓌,4.9,��
2019/10/02,15:30,0.751,1.071,0.733,1.313,0.966,0.424,0.740,0.696,��쓌,4.8,��
2019/10/02,15:40,0.751,1.074,0.735,1.310,0.967,0.423,0.740,0.697,��쓌,4.7,��
2019/10/02,15:50,0.750,1.073,0.737,1.311,0.967,0.421,0.741,0.697,��쓌,4.8,��
2019/10/02,16:00,0.753,1.073,0.736,1.311,0.967,0.423,0.740,0.696,��쓌,4.7,��
2019/10/02,16:10,0.750,1.075,0.735,1.310,0.966,0.422,0.739,0.697,��쓌,4.5,��
2019/10/02,16:20,0.751,1.076,0.735,1.309,0.969,0.424,0.739,0.696,��쓌,4.7,��
2019/10/02,16:30,0.753,1.077,0.736,1.311,0.970,0.424,0.740,0.696,��쓌,4.0,��
2019/10/02,16:40,0.752,1.078,0.737,1.310,0.967,0.423,0.742,0.696,��쓌,4.3,��
2019/10/02,16:50,0.751,1.076,0.736,1.311,0.969,0.423,0.742,0.697,��쓌,4.7,��
2019/10/02,17:00,0.750,1.076,0.737,1.311,0.968,0.424,0.742,0.699,��,4.3,��
2019/10/02,17:10,0.751,1.079,0.736,1.311,0.967,0.426,0.740,0.699,��,4.0,��
2019/10/02,17:20,0.753,1.080,0.738,1.312,0.965,0.427,0.741,0.700,��,4.4,��
2019/10/02,17:30,0.751,1.079,0.739,1.313,0.967,0.426,0.742,0.699,��,4.0,��
2019/10/02,17:40,0.752,1.078,0.740,1.309,0.966,0.426,0.742,0.699,��,4.2,��
2019/10/02,17:50,0.752,1.077,0.740,1.311,0.968,0.426,0.743,0.698,��,2.6,��
2019/10/02,18:00,0.753,1.078,0.740,1.311,0.971,0.425,0.741,0.699,��쓌,3.0,��
2019/10/02,18:10,0.753,1.077,0.740,1.310,0.970,0.425,0.741,0.699,��쓌,3.6,��
2019/10/02,18:20,0.754,1.077,0.739,1.312,0.970,0.427,0.742,0.702,�쓌,3.5,��
2019/10/02,18:30,0.754,1.077,0.739,1.310,0.969,0.426,0.740,0.699,��쓌,3.5,��
2019/10/02,18:40,0.752,1.076,0.738,1.310,0.968,0.428,0.741,0.699,��쓌,3.6,��
2019/10/02,18:50,0.753,1.079,0.739,1.312,0.969,0.426,0.740,0.698,��쓌,2.6,��
2019/10/02,19:00,0.754,1.077,0.739,1.310,0.969,0.426,0.740,0.699,��쓌,3.2,��
2019/10/02,19:10,0.754,1.074,0.738,1.312,0.969,0.425,0.739,0.698,��쓌,3.2,��
2019/10/02,19:20,0.753,1.077,0.738,1.312,0.967,0.425,0.740,0.698,��쓌,3.5,��
2019/10/02,19:30,0.755,1.074,0.737,1.309,0.969,0.426,0.740,0.699,��쓌,4.2,��
2019/10/02,19:40,0.753,1.073,0.738,1.312,0.968,0.427,0.741,0.697,��쓌,3.6,��
2019/10/02,19:50,0.755,1.079,0.738,1.311,0.969,0.426,0.740,0.698,��쓌,4.5,��
2019/10/02,20:00,0.752,1.075,0.737,1.312,0.968,0.424,0.738,0.698,��,4.0,��
2019/10/02,20:10,0.754,1.074,0.739,1.309,0.968,0.424,0.740,0.699,��,3.4,��
2019/10/02,20:20,0.752,1.076,0.739,1.309,0.969,0.426,0.740,0.698,��,4.8,��
2019/10/02,20:30,0.752,1.075,0.739,1.310,0.970,0.425,0.739,0.699,��쓌,4.9,��
2019/10/02,20:40,0.754,1.078,0.737,1.310,0.967,0.426,0.738,0.698,��,5.4,��
2019/10/02,20:50,0.754,1.076,0.741,1.311,0.967,0.426,0.740,0.699,��,5.4,��
2019/10/02,21:00,0.752,1.073,0.738,1.310,0.968,0.425,0.741,0.698,��,4.8,��
2019/10/02,21:10,0.752,1.074,0.739,1.311,0.970,0.425,0.742,0.698,��,5.2,��
2019/10/02,21:20,0.752,1.074,0.741,1.312,0.970,0.425,0.742,0.698,��,5.6,��
2019/10/02,21:30,0.754,1.074,0.740,1.314,0.967,0.426,0.741,0.698,��,4.4,��
2019/10/02,21:40,0.754,1.076,0.739,1.313,0.968,0.426,0.739,0.698,��,3.9,��
2019/10/02,21:50,0.751,1.075,0.739,1.312,0.969,0.425,0.741,0.700,��,4.7,��
2019/10/02,22:00,0.753,1.073,0.739,1.313,0.969,0.428,0.741,0.698,��,5.6,��
2019/10/02,22:10,0.754,1.073,0.740,1.312,0.969,0.425,0.741,0.698,��,6.3,��
2019/10/02,22:20,0.754,1.074,0.738,1.314,0.967,0.425,0.742,0.699,��,5.8,��
2019/10/02,22:30,0.753,1.072,0.739,1.315,0.971,0.425,0.740,0.700,��,5.8,��
2019/10/02,22:40,0.753,1.074,0.739,1.311,0.971,0.426,0.741,0.699,��,5.8,��
2019/10/02,22:50,0.752,1.073,0.740,1.309,0.968,0.424,0.740,0.698,��,6.8,��
2019/10/02,23:00,0.753,1.073,0.737,1.309,0.967,0.426,0.741,0.698,��쓌,6.8,��
2019/10/02,23:10,0.753,1.072,0.738,1.312,0.969,0.424,0.740,0.698,��쓌,6.2,��
2019/10/02,23:20,0.754,1.071,0.739,1.310,0.968,0.424,0.740,0.699,��쓌,6.1,��
2019/10/02,23:30,0.751,1.071,0.738,1.310,0.968,0.424,0.740,0.697,��,5.8,��
2019/10/02,23:40,0.751,1.071,0.737,1.312,0.969,0.426,0.739,0.698,��,5.6,��
2019/10/02,23:50,0.753,1.072,0.737,1.308,0.967,0.424,0.741,0.698,��,5.8,��
